Location: Bergnerzell
(49.1816°N, 10.2565°E)
Time: 00:59:54
(UTC+00:00)

Cosmos 1908 Rocket - Pass Details

Date: 23 May 2024
Orbit: 599 x 627 km, 82.5° (Epoch: 24 May)

Event Time Altitude Azimuth Distance (km) Brightness Sun altitude
Rises 00:10:11 0° 354° (N) 2,923 8.3 -19.1°
Reaches altitude 10° 00:12:31 10° 1° (N) 2,007 7.3 -19.0°
Maximum altitude 00:16:48 46° 75° (ENE) 841 4.4 -18.9°
Enters shadow 00:19:18 22° 138° (SE) 1,351 5.0 -18.8°
